New Haven, CT

10:02 PM EDT on August 23, 2017 (GMT -0400)
Tweed-New Haven

Weather History for KHVN - January, 2013

Change the Weather History Date:

Wednesday, January 9, 2013

  Actual Average Record
Temperature  
Mean Temperature 35 °F -  
Max Temperature 46 °F 35 °F 60 °F (2008)
Min Temperature 24 °F 24 °F 3 °F (1970)
Degree Days  
Heating Degree Days 30    
Moisture  
Dew Point 28 °F    
Average Humidity 82    
Maximum Humidity 93    
Minimum Humidity 66    
Precipitation  
Precipitation 0.00 in - - ()
Sea Level Pressure  
Sea Level Pressure 30.30 in    
Wind  
Wind Speed 1 mph (SW)    
Max Wind Speed 10 mph    
Max Gust Speed 17 mph    
Visibility 5 miles    
Events Fog    
Averages and records for this station are not official NWS values.
T = Trace of Precipitation, MM = Missing Value Source: NWS Daily Summary

Daily Weather History Graph

Daily Weather History Graph

Search for Another Location

Airport or City:

Trip Planner

Search our weather history database for the weather conditions in past years. The results will help you decide how hot, cold, wet, or windy it might be!

Date:

Astronomy

Jan. 09, 2013 Rise Set
Actual Time 7:16 AM EST 4:41 PM EST
Civil Twilight 6:46 AM EST 5:11 PM EST
Nautical Twilight 6:11 AM EST 5:46 PM EST
Astronomical Twilight 5:38 AM EST 6:19 PM EST
Moon 4:53 AM EST (1/9) 2:39 PM EST (1/9)
Length of Visible Light 10h 25m
Length of Day
9h 24m
Waning Crescent, 6% of the Moon is Illuminated
Jan 9
Waning Crescent
Jan 11
New
Jan 18
First Quarter
Jan 26
Full
Feb 3
Last Quarter

Hourly Weather History & Observations

Time (EST) Temp. Windchill Dew Point Humidity Pressure Visibility Wind Dir Wind Speed Gust Speed Precip Events Conditions
12:01 AM 30.2 °F - 26.6 °F 86% 30.38 in 1.8 mi Calm Calm - N/A   Clear
12:11 AM 28.4 °F - 26.6 °F 93% 30.37 in 0.8 mi Calm Calm - N/A   Clear
12:16 AM 28.4 °F - 24.8 °F 86% 30.37 in 2.0 mi Calm Calm - N/A   Clear
12:26 AM 28.4 °F - 24.8 °F 86% 30.36 in 2.5 mi Calm Calm - N/A   Partly Cloudy
12:53 AM 28.0 °F - 26.1 °F 92% 30.37 in 2.0 mi Calm Calm - N/A   Partly Cloudy
1:15 AM 28.4 °F - 24.8 °F 86% 30.37 in 1.2 mi Calm Calm - N/A   Partly Cloudy
1:18 AM 28.4 °F - 24.8 °F 86% 30.38 in 0.8 mi Calm Calm - N/A   Mist
1:32 AM 26.6 °F - 24.8 °F 93% 30.38 in 1.2 mi Calm Calm - N/A   Partly Cloudy
1:53 AM 26.1 °F - 23.0 °F 88% 30.38 in 4.0 mi Calm Calm - N/A   Partly Cloudy
1:57 AM 26.6 °F - 23.0 °F 86% 30.38 in 0.8 mi Calm Calm - N/A   Mist
2:06 AM 26.6 °F - 23.0 °F 86% 30.38 in 0.2 mi Calm Calm - N/A Fog Light Freezing Fog
2:13 AM 26.6 °F - 23.0 °F 86% 30.38 in 1.0 mi Calm Calm - N/A   Mist
2:20 AM 26.6 °F - 23.0 °F 86% 30.38 in 2.0 mi Calm Calm - N/A   Scattered Clouds
2:29 AM 26.6 °F - 23.0 °F 86% 30.38 in 4.0 mi Calm Calm - N/A   Partly Cloudy
2:53 AM 26.1 °F - 21.9 °F 84% 30.38 in 5.0 mi Calm Calm - N/A   Clear
3:53 AM 25.0 °F 20.7 °F 21.0 °F 85% 30.37 in 4.0 mi North 3.5 mph - N/A   Clear
4:53 AM 24.1 °F - 21.0 °F 88% 30.36 in 6.0 mi Calm Calm - N/A   Clear
5:53 AM 25.0 °F - 21.0 °F 85% 30.37 in 4.0 mi Calm Calm - N/A   Partly Cloudy
6:53 AM 24.1 °F - 21.0 °F 88% 30.38 in 6.0 mi Calm Calm - N/A   Mostly Cloudy
7:53 AM 25.0 °F - 21.9 °F 88% 30.39 in 4.0 mi Calm Calm - N/A   Mostly Cloudy
8:53 AM 32.0 °F - 28.0 °F 85% 30.37 in 6.0 mi Calm Calm - N/A   Mostly Cloudy
9:53 AM 37.0 °F - 32.0 °F 82% 30.37 in 4.0 mi Calm Calm - N/A   Haze
10:53 AM 41.0 °F - 32.0 °F 70% 30.34 in 6.0 mi Calm Calm - N/A   Haze
11:53 AM 41.0 °F 37.1 °F 33.1 °F 73% 30.26 in 7.0 mi ESE 5.8 mph - N/A   Overcast
12:53 PM 41.0 °F - 35.1 °F 79% 30.25 in 5.0 mi Calm Calm - N/A   Haze
1:53 PM 41.0 °F - 35.1 °F 79% 30.24 in 5.0 mi Calm Calm - N/A   Haze
2:53 PM 41.0 °F 37.1 °F 35.1 °F 79% 30.18 in 6.0 mi SSE 5.8 mph - N/A   Haze
3:53 PM 42.1 °F 37.7 °F 36.0 °F 79% 30.13 in 6.0 mi South 6.9 mph - N/A   Haze
4:53 PM 44.1 °F 41.5 °F 37.0 °F 76% 30.12 in 7.0 mi SW 4.6 mph - N/A   Overcast
6:53 PM 43.0 °F 38.8 °F 37.0 °F 80% 30.13 in 8.0 mi WSW 6.9 mph - N/A   Clear
7:53 PM 45.0 °F 41.8 °F 37.0 °F 74% 30.13 in 9.0 mi WSW 5.8 mph - N/A   Clear
8:53 PM 44.6 °F 39.7 °F 35.6 °F 71% 30.14 in 10.0 mi WSW 9.2 mph - N/A   Clear
9:53 PM 46.0 °F 41.0 °F 35.1 °F 66% 30.14 in 10.0 mi WSW 10.4 mph - N/A   Clear
10:53 PM 46.0 °F 41.4 °F 35.1 °F 66% 30.14 in 10.0 mi WSW 9.2 mph 17.3 mph N/A   Clear
11:53 PM 45.0 °F 40.1 °F 35.1 °F 68% 30.14 in 10.0 mi WSW 9.2 mph - N/A   Clear